This demonstration page uses our WeatherBlox Daily Observations layout. Learn more.

Left ArrowRight Arrow

38.20091, -84.87328

Hourly Observations for August 6, 2017

Temp ( °F °C ) Dew Point ( °F °C ) Humidity (%) Winds ( mph kmh ) Pressure ( in mb ) Visibility ( mi km ) Precip ( " mm )
12:53 am 00:53 Clear 65 18.3 56 13.3 73 73 SE 3 6 30.05 1018 10 16 0.00 0.00
1:53 am 01:53 Clear 66 18.9 55 12.8 68 68 Calm 30.04 1017 10 16 0.00 0.00
2:53 am 02:53 Clear 65 18.3 56 13.3 73 73 Calm 30.05 1018 10 16 0.00 0.00
3:53 am 03:53 Clear 63 17.2 57 13.9 81 81 Calm 30.04 1017 10 16 0.00 0.00
4:53 am 04:53 Mostly Clear 63 17.2 57 13.9 81 81 Calm 30.03 1017 10 16 0.00 0.00
5:53 am 05:53 Cloudy 62 16.7 57 13.9 84 84 Calm 30.05 1018 10 16 0.00 0.00
6:53 am 06:53 Cloudy 63 17.2 57 13.9 81 81 Calm 30.05 1018 10 16 0.00 0.00
7:53 am 07:53 Cloudy 64 17.8 58 14.4 81 81 Calm 30.06 1018 10 16 0.00 0.00
8:53 am 08:53 Partly Cloudy 67 19.4 58 14.4 73 73 ENE 5 7 30.06 1018 10 16 0.00 0.00
9:53 am 09:53 Mostly Cloudy 69 20.6 57 13.9 66 66 SE 3 6 30.06 1018 10 16 0.00 0.00
10:53 am 10:53 Mostly Sunny 72 22.2 58 14.4 61 61 Calm 30.05 1018 10 16 0.00 0.00
11:53 am 11:53 Cloudy 73 22.8 59 15 62 62 NNE 3 6 30.06 1018 10 16 0.00 0.00
12:53 pm 12:53 Mostly Cloudy 74 23.3 60 15.6 62 62 Calm 30.06 1018 10 16 0.00 0.03
1:53 pm 13:53 Cloudy 74 23.3 60 15.6 62 62 E 7 11 30.04 1017 10 16 0.00 0.00
2:53 pm 14:53 Cloudy 74 23.3 54 12.2 50 50 S 5 7 30.04 1017 10 16 0.00 0.00
3:48 pm 15:48 Cloudy with Heavy Rain 68 20 59 15 73 73 SSW 3 6 30.06 1018 2 3 0.05 1.27
3:53 pm 15:53 Cloudy with Heavy Rain 67 19.4 60 15.6 79 79 SW 6 9 30.06 1018 1 2 0.09 2.29
4:02 pm 16:02 Cloudy with Light Rain 67 19.4 59 15 76 76 NW 3 6 30.09 1019 3 5 0.01 0.25
4:53 pm 16:53 Cloudy with Light Rain 67 19.4 59 15 76 76 SE 6 9 30.05 1018 10 16 0.07 1.78
5:53 pm 17:53 Cloudy 66 18.9 61 16.1 84 84 SE 6 9 30.03 1017 10 16 0.00 0.03
6:44 pm 18:44 Cloudy with Heavy Rain 65 18.3 61 16.1 87 87 Calm 30.06 1018 2 3 0.06 1.52
6:53 pm 18:53 Cloudy with Rain 65 18.3 62 16.7 90 90 ENE 3 6 30.04 1017 3 5 0.08 2.03
7:53 pm 19:53 Cloudy 65 18.3 61 16.1 87 87 E 5 7 30.00 1016 10 16 0.05 1.27
8:53 pm 20:53 Mostly Cloudy 65 18.3 60 15.6 84 84 E 6 9 30.01 1016 10 16 0.00 0.00
9:53 pm 21:53 Mostly Cloudy 65 18.3 60 15.6 84 84 N 3 6 30.01 1016 10 16 0.00 0.03
10:53 pm 22:53 Cloudy with Rain 64 17.8 61 16.1 90 90 E 3 6 30.01 1016 6 10 0.04 1.02
11:53 pm 23:53 Cloudy with Heavy Rain 64 17.8 61 16.1 90 90 SE 5 7 30.02 1017 3 5 0.19 4.83

Powered by AerisWeather